Wind_Speed
11 11 11 11 12 12 12 12 12 12 12 13 13 13 13 13 13 12 12 12 12 12 12 12 12 12 11 11 10 9 9 9 9 8 9 9 8 8 9 9 9 9 9
12 12 12 12 12 13 13 13 13 13 13 13 13 14 14 13 13 13 13 13 13 13 13 13 13 13 13 12 12 12 11 11 11 10 10 10 10 10 10 10 10 10 11
13 13 13 13 13 13 13 13 13 13 13 13 13 14 14 14 14 14 14 14 14 14 14 14 15 14 14 14 14 14 13 13 13 12 12 11 12 12 12 12 12 12 13
15 15 15 15 15 14 15 15 15 15 14 14 14 14 14 14 14 14 14 14 15 15 15 15 15 15 16 15 15 15 16 15 15 14 13 13 14 14 14 14 14 15 15
17 17 17 16 16 16 16 16 16 16 16 16 16 15 15 15 15 16 16 16 16 16 16 16 17 17 17 17 17 17 17 17 17 16 16 16 16 16 16 16 16 17 17
17 17 17 17 18 18 18 18 17 17 17 17 17 17 16 16 16 16 16 17 17 17 18 18 18 19 19 19 19 19 19 19 19 19 18 18 18 18 18 18 18 18 18
18 18 18 18 19 19 18 18 18 18 19 19 19 18 18 17 18 18 18 18 19 19 19 19 19 19 20 21 21 21 21 21 21 21 21 20 20 21 21 21 21 21 20
21 20 20 20 20 20 20 20 19 19 19 19 19 19 20 20 20 20 20 20 20 20 21 21 21 21 21 22 22 23 23 23 24 24 24 23 23 23 23 23 23 23 23
22 22 21 21 21 21 21 21 21 20 21 21 21 21 21 21 21 21 21 21 21 21 21 22 22 22 22 23 23 24 24 24 25 25 25 25 25 25 25 25 25 24 24
23 23 23 22 22 23 22 22 22 22 22 23 23 23 23 23 23 23 23 22 22 22 22 22 22 23 23 24 24 24 25 26 26 26 26 27 27 27 27 27 27 27 26
23 24 23 23 24 24 24 24 24 24 24 24 24 25 25 25 25 25 24 24 24 24 24 23 24 24 24 25 25 26 26 27 27 27 28 28 29 29 29 29 29 29 29
23 24 24 24 24 25 25 25 25 26 25 25 25 25 26 26 26 26 26 26 26 26 26 26 26 26 26 27 27 28 28 28 29 29 29 30 30 30 30 30 30 31 30
25 25 25 25 25 26 26 26 26 26 27 27 27 27 27 27 27 28 28 28 28 28 28 28 28 28 29 29 29 30 30 30 30 30 31 31 31 30 30 30 30 30 31
26 26 26 26 26 27 27 27 27 27 28 28 28 28 29 29 29 29 29 29 30 30 30 30 30 30 30 30 31 32 31 31 31 31 31 31 32 31 31 31 31 31 32
27 27 27 27 28 28 29 29 28 28 29 29 30 30 30 30 31 31 31 31 31 32 32 33 32 32 32 32 32 33 33 32 32 32 32 32 33 33 32 32 32 32 32
28 29 30 30 30 30 30 30 30 30 30 31 31 32 32 32 33 33 33 33 33 33 33 34 34 33 33 33 33 33 34 33 32 32 33 33 34 34 34 34 33 33 32
29 29 30 30 31 31 31 31 32 31 32 32 32 34 34 34 34 35 35 35 35 35 35 34 34 34 34 34 34 34 34 33 33 33 33 34 35 35 35 35 35 36 35
30 31 31 31 32 32 32 33 33 33 33 34 34 34 35 36 36 36 36 36 36 36 36 36 35 35 35 35 35 34 34 34 34 34 34 34 34 35 35 35 35 35 35
31 32 33 32 33 34 34 34 34 35 35 35 35 36 37 37 37 37 37 37 37 37 37 37 37 37 37 36 36 36 35 34 35 34 34 34 34 34 35 35 36 35 36
33 33 34 34 34 35 35 36 36 37 37 37 37 37 37 38 38 38 38 38 38 38 38 38 38 38 38 37 37 37 37 36 35 35 36 36 36 35 35 34 35 36 37
34 34 34 35 35 35 36 37 37 38 38 38 38 38 38 39 39 40 40 40 39 39 39 39 39 39 38 38 38 37 37 37 36 36 36 36 36 36 35 35 35 36 37
35 35 35 35 36 36 36 37 38 39 40 40 40 39 39 40 40 41 42 42 41 41 41 41 40 40 40 39 39 39 38 38 37 36 36 37 37 36 37 37 37 36 36
35 35 36 37 37 37 38 39 40 40 40 41 41 41 41 41 41 42 43 43 43 43 42 42 42 41 41 41 41 40 39 39 38 37 37 37 37 37 36 37 37 37 38
36 36 37 37 38 38 40 40 40 40 40 40 41 42 42 42 42 42 43 44 44 44 44 43 43 42 42 42 42 41 41 40 40 38 38 38 38 37 37 38 38 39 39
36 37 38 38 39 39 40 40 41 41 41 41 42 42 43 43 43 43 43 44 45 44 44 44 43 43 42 42 42 42 42 42 41 40 40 40 40 39 39 39 39 39 40
37 38 38 39 39 39 39 39 40 41 41 42 42 42 43 43 43 43 43 44 44 45 45 45 45 45 44 44 44 43 43 42 42 42 42 41 41 41 41 41 40 39 40
Wind_Direction
245 245 244 244 245 245 248 252 256 258 258 258 257 258 260 261 261 260 259 259 259 260 261 264 266 267 267 266 265 264 261 260 256 257 259 257 259 261 265 269 264 262 262
246 247 247 247 247 248 250 253 256 257 257 256 257 259 261 261 259 257 257 258 258 260 262 263 265 266 264 264 265 264 262 262 260 257 259 261 266 266 266 270 270 268 266
247 247 248 249 249 250 251 253 255 257 258 257 257 258 259 259 257 256 256 258 260 261 263 264 264 265 265 265 265 264 262 260 258 257 258 262 266 267 269 270 269 271 272
248 248 248 250 251 252 252 253 254 256 257 257 257 257 256 256 256 257 258 261 262 263 264 265 264 265 265 265 266 265 264 260 259 258 260 264 267 269 269 269 269 271 273
250 249 249 250 251 252 253 253 254 255 255 256 256 257 257 256 257 259 261 262 263 265 266 266 266 266 266 265 266 266 263 261 261 260 263 266 267 268 269 271 271 272 272
250 250 250 251 251 252 252 252 253 254 254 255 254 255 256 256 258 260 263 264 265 266 267 268 268 267 266 266 267 268 267 264 262 262 263 266 268 268 269 272 273 272 272
251 253 254 253 253 252 251 252 252 253 255 256 255 255 255 257 258 261 262 264 266 268 269 269 268 267 267 266 266 267 268 266 265 265 265 265 266 267 269 272 272 272 270
255 256 255 255 255 254 253 254 253 254 255 256 256 255 256 257 259 262 264 266 269 270 270 270 269 269 269 268 267 266 268 268 266 266 267 266 267 268 270 271 271 271 270
256 256 254 254 255 255 255 255 254 255 256 257 258 257 257 258 260 263 266 267 269 271 270 270 270 270 270 270 269 268 268 268 267 266 266 266 267 269 270 270 270 270 269
256 255 255 255 255 256 256 256 256 256 258 259 260 260 260 260 262 264 266 267 269 270 272 272 271 271 271 271 270 270 269 269 268 268 267 267 268 268 268 269 268 268 269
256 255 255 254 254 255 256 257 257 257 259 260 261 261 261 261 263 265 266 266 267 269 270 272 272 272 272 272 272 271 270 269 269 269 269 269 269 269 268 268 267 267 268
254 255 255 254 254 255 256 257 257 258 259 260 261 261 261 262 263 265 266 267 268 268 270 271 272 273 272 272 272 271 270 269 269 269 269 269 270 269 269 268 267 267 268
252 254 256 256 255 255 256 257 258 259 260 260 262 262 262 262 264 266 267 268 268 269 269 271 272 273 273 272 272 272 270 269 269 268 268 268 268 268 268 268 268 267 269
253 254 255 257 256 257 257 258 259 261 262 262 263 263 263 264 265 266 268 269 269 269 269 270 271 273 274 274 273 273 271 270 270 270 268 268 268 267 267 266 267 268 269
254 255 256 258 258 258 259 260 261 263 263 264 265 264 264 265 266 268 269 269 270 270 270 270 271 272 274 275 275 273 272 272 271 270 269 267 268 267 267 267 267 267 268
255 256 257 258 259 260 261 261 262 263 264 266 266 265 265 266 266 267 269 270 270 270 270 270 270 271 272 273 275 274 272 272 273 271 270 268 266 266 266 267 266 266 267
256 258 258 259 261 261 262 264 264 264 266 267 268 267 266 266 266 267 268 269 269 269 270 270 270 270 270 272 273 274 273 272 273 272 270 269 267 266 267 268 267 267 268
258 259 261 261 262 263 264 265 265 265 266 267 268 268 267 267 266 266 267 268 269 269 269 270 270 269 270 271 272 273 274 274 273 272 270 269 269 268 267 267 267 267 268
260 261 262 262 263 263 264 264 265 267 267 268 268 268 267 267 266 266 266 268 268 269 269 269 270 270 270 270 271 272 274 274 273 273 271 269 270 270 268 267 267 268 269
261 261 262 263 263 264 264 264 266 267 268 268 269 270 268 266 266 266 266 267 268 268 268 269 270 270 270 270 271 273 274 274 273 273 272 272 272 271 269 269 268 269 270
262 262 262 264 264 265 265 266 267 268 268 268 269 270 269 267 265 265 266 267 268 268 268 268 268 269 269 269 270 272 273 274 274 274 273 272 272 271 269 270 271 270 271
264 264 265 265 266 266 267 268 268 268 268 268 268 269 269 269 267 266 266 266 267 267 267 268 268 268 268 269 270 271 272 272 273 274 274 273 271 270 270 271 273 272 272
265 266 267 267 267 267 268 270 270 270 270 270 269 270 269 268 268 268 267 266 266 266 266 267 267 267 267 268 268 269 271 271 272 272 273 274 273 272 271 272 272 273 272
266 268 268 268 269 269 270 271 272 272 271 271 270 270 269 268 268 267 266 266 266 265 265 265 266 267 267 267 267 268 270 270 271 270 272 273 273 273 272 273 274 274 273
267 268 269 269 270 271 272 272 272 272 271 271 271 270 269 269 267 267 267 266 266 265 265 265 265 266 267 266 266 267 268 269 269 270 270 271 273 273 274 274 276 276 275
267 268 269 270 271 272 273 273 273 272 271 271 272 271 271 269 268 267 267 266 266 265 264 265 266 266 266 266 266 266 268 268 269 269 269 270 271 273 274 275 276 276 277
Height
5848 5848 5849 5849 5850 5850 5851 5851 5852 5852 5853 5853 5853 5853 5853 5854 5854 5854 5854 5854 5855 5855 5855 5855 5855 5855 5855 5855 5855 5855 5855 5856 5856 5856 5856 5856 5856 5856 5856 5856 5856 5856 5856
5846 5846 5846 5847 5847 5848 5849 5849 5850 5850 5850 5851 5851 5851 5851 5851 5851 5852 5852 5852 5852 5853 5853 5853 5853 5853 5853 5853 5853 5853 5853 5854 5854 5854 5854 5854 5854 5854 5854 5854 5854 5854 5854
5843 5843 5844 5844 5845 5846 5846 5847 5848 5848 5848 5848 5848 5849 5849 5849 5849 5849 5849 5850 5850 5850 5850 5850 5850 5850 5850 5851 5851 5851 5851 5851 5852 5852 5852 5852 5852 5852 5852 5852 5852 5852 5852
5840 5840 5841 5842 5842 5843 5843 5844 5845 5845 5846 5846 5846 5846 5846 5846 5846 5846 5847 5847 5847 5847 5847 5847 5847 5847 5848 5848 5848 5848 5848 5849 5849 5849 5850 5850 5850 5850 5850 5849 5849 5849 5849
5837 5837 5838 5838 5839 5840 5840 5841 5842 5842 5843 5843 5843 5843 5843 5843 5843 5843 5844 5844 5844 5844 5844 5844 5844 5844 5844 5845 5845 5845 5845 5845 5846 5846 5847 5847 5847 5847 5847 5846 5846 5846 5846
5833 5834 5834 5835 5836 5836 5837 5838 5838 5839 5839 5840 5840 5840 5840 5840 5840 5840 5840 5841 5841 5841 5841 5840 5840 5840 5841 5841 5841 5841 5841 5842 5842 5843 5843 5843 5843 5844 5843 5843 5843 5842 5842
5830 5830 5830 5831 5832 5833 5833 5834 5835 5835 5836 5836 5836 5836 5837 5837 5837 5837 5837 5837 5837 5837 5837 5836 5836 5836 5836 5837 5837 5837 5837 5837 5838 5838 5839 5839 5839 5839 5839 5839 5839 5839 5838
5826 5826 5827 5827 5828 5829 5829 5830 5831 5831 5832 5832 5832 5833 5833 5833 5833 5833 5833 5833 5833 5833 5832 5832 5832 5832 5832 5832 5833 5833 5833 5833 5833 5833 5834 5834 5834 5834 5834 5834 5834 5834 5833
5821 5822 5822 5823 5824 5824 5825 5826 5826 5827 5828 5828 5828 5828 5829 5829 5829 5829 5829 5829 5829 5828 5828 5828 5827 5828 5828 5828 5828 5828 5828 5828 5828 5828 5829 5829 5829 5829 5829 5828 5828 5828 5828
5816 5817 5818 5819 5819 5820 5820 5821 5822 5822 5823 5823 5823 5824 5824 5824 5824 5825 5825 5824 5824 5824 5823 5823 5823 5823 5823 5823 5823 5823 5823 5823 5823 5823 5823 5823 5823 5823 5823 5822 5822 5822 5822
5811 5812 5813 5813 5814 5815 5815 5816 5817 5817 5818 5818 5818 5818 5819 5819 5819 5819 5820 5820 5820 5819 5819 5819 5818 5818 5818 5818 5818 5818 5817 5817 5817 5817 5817 5817 5816 5816 5816 5816 5816 5816 5816
5806 5807 5808 5808 5809 5810 5810 5811 5811 5812 5812 5812 5812 5813 5813 5813 5814 5814 5814 5814 5814 5814 5814 5813 5813 5813 5813 5812 5812 5811 5811 5811 5811 5810 5810 5810 5809 5809 5809 5809 5809 5809 5809
5801 5801 5802 5803 5803 5804 5804 5805 5805 5806 5806 5807 5807 5807 5807 5807 5808 5808 5808 5808 5808 5808 5808 5808 5807 5807 5806 5806 5806 5805 5805 5804 5803 5803 5803 5802 5802 5802 5801 5802 5802 5802 5802
5795 5795 5796 5797 5798 5798 5799 5799 5799 5800 5800 5800 5800 5801 5801 5801 5801 5802 5802 5802 5802 5802 5802 5801 5801 5800 5800 5799 5799 5798 5798 5797 5796 5795 5795 5795 5794 5794 5794 5794 5795 5795 5794
5788 5789 5790 5791 5791 5792 5792 5793 5793 5793 5794 5794 5794 5794 5794 5794 5795 5795 5795 5795 5795 5794 5794 5794 5794 5794 5793 5792 5791 5791 5790 5789 5788 5788 5788 5787 5787 5787 5787 5787 5787 5787 5787
5782 5782 5783 5784 5784 5785 5785 5786 5786 5786 5787 5787 5786 5787 5787 5787 5787 5788 5788 5788 5787 5787 5787 5786 5786 5786 5786 5785 5784 5783 5782 5781 5781 5780 5780 5780 5779 5779 5779 5779 5779 5780 5779
5775 5775 5776 5777 5777 5777 5778 5778 5778 5779 5779 5779 5779 5779 5779 5779 5779 5780 5780 5780 5780 5779 5779 5778 5778 5778 5778 5777 5776 5775 5774 5774 5773 5772 5772 5771 5771 5771 5771 5771 5771 5771 5771
5767 5768 5768 5769 5769 5770 5770 5770 5770 5770 5771 5771 5771 5771 5770 5771 5771 5771 5771 5772 5771 5771 5771 5771 5770 5770 5770 5769 5768 5767 5767 5766 5765 5764 5764 5763 5763 5763 5763 5762 5762 5763 5763
5759 5760 5760 5761 5761 5761 5762 5762 5762 5762 5762 5762 5762 5762 5762 5762 5762 5762 5762 5763 5762 5763 5763 5762 5762 5762 5761 5761 5760 5759 5759 5758 5757 5756 5755 5755 5755 5755 5754 5754 5754 5754 5754
5751 5751 5752 5752 5753 5753 5753 5753 5753 5753 5753 5752 5752 5752 5752 5752 5752 5753 5753 5753 5753 5754 5754 5754 5753 5753 5753 5752 5752 5751 5750 5749 5749 5748 5747 5747 5746 5746 5746 5746 5746 5746 5745
5742 5743 5743 5744 5744 5744 5744 5744 5744 5744 5743 5743 5742 5742 5742 5742 5742 5743 5743 5743 5744 5744 5744 5744 5744 5744 5744 5743 5743 5743 5742 5741 5740 5740 5739 5739 5738 5738 5738 5738 5737 5737 5737
5733 5733 5734 5734 5734 5734 5734 5734 5733 5733 5733 5733 5732 5732 5732 5732 5732 5732 5733 5733 5734 5734 5734 5734 5734 5734 5734 5734 5734 5733 5733 5733 5732 5732 5731 5730 5730 5729 5729 5729 5729 5728 5727
5724 5724 5724 5724 5724 5724 5724 5723 5722 5722 5722 5722 5722 5721 5721 5721 5721 5721 5722 5722 5723 5723 5724 5724 5724 5724 5724 5724 5724 5724 5724 5724 5723 5723 5722 5721 5721 5720 5720 5720 5719 5719 5718
5714 5714 5714 5714 5714 5713 5713 5712 5711 5711 5711 5711 5710 5710 5709 5709 5709 5710 5710 5711 5711 5712 5712 5713 5713 5714 5714 5714 5714 5714 5714 5714 5714 5714 5714 5713 5712 5711 5711 5711 5710 5709 5708
5704 5704 5704 5703 5703 5702 5702 5701 5700 5700 5699 5699 5698 5698 5697 5697 5697 5697 5698 5698 5699 5700 5701 5701 5702 5702 5703 5703 5703 5704 5704 5704 5704 5704 5704 5704 5703 5702 5702 5701 5701 5699 5699
5693 5693 5693 5692 5692 5692 5691 5690 5689 5688 5687 5687 5686 5686 5685 5685 5685 5685 5685 5686 5687 5688 5689 5689 5690 5691 5691 5692 5692 5693 5693 5694 5694 5694 5694 5694 5693 5692 5691 5691 5691 5689 5688